Location: Fort Wayne
(41.1310°N, 85.1290°W)
Time: 12:17:02
(UTC-04:00)

OPAL - Visible Passes

Search period start: 01 October 2014 00:00
Search period end: 11 October 2014 00:00
Orbit: 744 x 796 km, 100.2° (Epoch: 30 September)

Date Brightness Start Highest point End Pass type
(mag) Time Alt. Az. Time Alt. Az. Time Alt. Az.
01 Oct 7.9 05:23:04 10° SSE 05:28:13 65° ENE 05:33:24 10° N visible
01 Oct 9.0 07:04:26 10° SW 07:07:31 16° W 07:10:36 10° WNW visible
02 Oct 9.3 04:48:40 10° SE 04:53:13 31° ENE 04:57:46 10° N visible
02 Oct 8.1 06:27:18 10° SSW 06:31:59 34° W 06:36:42 10° NW visible
02 Oct 10.3 20:16:58 10° NNW 20:20:09 17° WNW 20:23:18 10° W visible
03 Oct 10.3 04:15:20 10° E 04:18:24 16° ENE 04:21:27 10° NNE visible
03 Oct 7.4 05:51:27 10° S 05:56:39 73° WSW 06:01:53 10° NNW visible
03 Oct 9.4 19:40:46 10° N 19:45:18 34° WNW 19:49:46 10° SW visible
04 Oct 8.3 05:16:27 10° SE 05:21:30 53° ENE 05:26:35 10° N visible
04 Oct 8.8 06:57:01 10° SW 07:00:40 19° W 07:04:20 10° NW visible
05 Oct 9.6 04:42:17 10° ESE 04:46:33 26° ENE 04:50:48 10° N visible
05 Oct 7.9 06:20:18 10° S 06:25:12 41° W 06:30:06 10° NNW visible
05 Oct 10.2 20:09:53 10° NNW 20:13:30 20° WNW 20:17:04 10° WSW visible
06 Oct 10.4 04:09:24 10° E 04:11:46 13° ENE 04:14:09 10° NNE visible
06 Oct 7.5 05:44:41 10° SSE 05:49:54 88° WSW 05:55:09 10° NNW visible
06 Oct 9.0 19:33:52 10° N 19:38:36 40° WNW 19:43:14 10° SW visible
07 Oct 8.6 05:09:53 10° SE 05:14:48 44° ENE 05:19:43 10° N visible
07 Oct 8.6 06:49:44 10° SSW 06:53:50 23° W 06:57:56 10° NW visible
07 Oct 10.6 20:39:51 10° NW 20:41:34 12° NW 20:43:17 10° WNW visible
08 Oct 9.8 04:35:57 10° ESE 04:39:53 22° ENE 04:43:48 10° NNE visible
08 Oct 7.7 06:13:22 10° S 06:18:24 50° WSW 06:23:27 10° NNW visible
08 Oct 9.9 20:02:51 10° N 20:06:49 24° WNW 20:10:44 10° WSW visible
09 Oct 10.6 04:03:51 10° ENE 04:05:09 11° NE 04:06:27 10° NE visible
09 Oct 7.6 05:37:58 10° SSE 05:43:10 77° ENE 05:48:22 10° NNW visible
10 Oct 9.0 05:03:22 10° SE 05:08:06 37° ENE 05:12:50 10° N visible
10 Oct 8.4 06:42:34 10° SSW 06:47:00 28° W 06:51:26 10° NW visible
10 Oct 10.4 20:32:23 10° NNW 20:34:56 14° WNW 20:37:28 10° W visible
